Regional Weather Roundup
Issued by NWS

Home | Current Version | Previous Version | Graphics & Text | Print | Product List | Glossary On
Versions: 1 2 3 4 5 6 7 8 9 10 11 12 13 14 15 16 17 18 19 20 21 22 23 24 25 26 27 28 29 30 31 32 33 34 35 36 37 38 39 40 41 42 43 44 45 46 47 48 49 50
000
ASUS43 KDMX 181001
RWRIA

WEATHER ROUNDUP FOR IOWA
NATIONAL WEATHER SERVICE DES MOINES IA
400 AM CST SAT NOV 18 2017

NOTE: "FAIR" INDICATES FEW OR NO CLOUDS BELOW 12,000 FEET WITH NO
SIGNIFICANT WEATHER AND/OR OBSTRUCTIONS TO VISIBILITY.

* - THESE STATIONS ARE NOT NWS STATIONS...THUS NOT UNDER NWS
QUALITY CONTROL.  THEY ALSO DO NOT REPORT WEATHER SUCH
AS PRECIPITATION OR FOG.

IAZ001>003-012>014-020>022-031>034-043>046-181100-
   NORTHWEST IOWA

CITY           SKY/WX    TMP DP  RH WIND       PRES   REMARKS
CARROLL *      MIX PCPN  37  37 100 N17G23    29.69R WCI  28
CHEROKEE *     CLOUDY    35  35  98 N12       29.73R WCI  27
DENISON *      CLOUDY    37  37 100 N12       29.71R WCI  30
LE MARS *      CLOUDY    36  32  87 N10G16    29.76R WCI  28
ORANGE CITY *  CLOUDY    34  30  86 N13       29.75R WCI  25
SHELDON *      CLOUDY    32  28  86 N13       29.74R WCI  22
SIOUX CITY     MOCLDY    36  34  92 NW16      29.76R WCI  26
SPENCER        CLOUDY    33  29  85 N18       29.72R WCI  22
STORM LAKE *   CLOUDY    34  34 100 N17G23    29.70R WCI  23
$$

IAZ055>058-069>071-079>083-090>094-181100-
   SOUTHWEST IOWA

CITY           SKY/WX    TMP DP  RH WIND       PRES   REMARKS
ATLANTIC *     RAIN      39  39 100 N18G29    29.66R WCI  30
AUDUBON *      RAIN      37  36  93 N15       29.67R WCI  28
CLARINDA *     CLOUDY    43  43 100 N18         N/A  FOG
COUNCIL BLFS * LGT RAIN  39  39 100 N14G21    29.69R WCI  31
CRESTON *      MIX PCPN  41  41 100 N18G25    29.60R
HARLAN  *      LGT RAIN  39  39 100 N16G24    29.72R WCI  30
LAMONI         LGT RAIN  45  43  93 N16G28    29.50F
RED OAK *      LGT RAIN  41  41 100 N16G23    29.66R
SHENANDOAH *   HVY RAIN  43  41  93 N14G21    29.64R
$$

IAZ047>049-059>061-072>074-084-181100-
   CENTRAL IOWA

CITY           SKY/WX    TMP DP  RH WIND       PRES   REMARKS
AMES           RAIN      39  39 100 N13       29.63R FOG     WCI  31
ANKENY *       LGT RAIN  39  39 100 N12       29.61F WCI  32
BOONE *        LGT RAIN  39  37  93 N18G24    29.62R WCI  30
CHARITON *     LGT RAIN  41  41 100 N18G25    29.53R
DES MOINES     RAIN      41  39  93 N13       29.58F
GRINNELL*      CLOUDY    40  38  95 N10       29.60R WCI  33
KNOXVILLE *    CLOUDY    41  41 100 N14       29.56S FOG
MARSHALLTOWN   LGT RAIN  39  38  96 N14       29.59R WCI  31
NEWTON *       CLOUDY    41  39  93 NE12      29.58R FOG
PELLA *        RAIN      41  40  93 N13       29.57F
PERRY *        RAIN      39  38  97 N16       29.64R WCI  31
$$

IAZ004>006-015-016-023>025-035-036-181100-
   NORTH CENTRAL IOWA

CITY           SKY/WX    TMP DP  RH WIND       PRES   REMARKS
ALGONA *       CLOUDY    36  36 100 N16G29    29.68R FOG     WCI  26
CLARION *      CLOUDY    37  37 100 N15       29.63S FOG     WCI  28
ESTHERVILLE    CLOUDY    32  31  96 N16       29.71R WCI  21
FORT DODGE *   CLOUDY    37  35  92 N12G18    29.67R FOG     WCI  29
MASON CITY     CLOUDY    36  35  96 N17       29.65R FOG     WCI  26
FOREST CITY *  CLOUDY    36  36 100 N15G24    29.65S FOG     WCI  26
WEBSTER CITY * LGT RAIN  37  37 100 N22       29.61R WCI  27
IOWA FALLS *   LGT RAIN  38  37  93 N14G22    29.60F WCI  30
$$

IAZ007>011-017>019-026>030-037>042-050>054-066-181100-
   NORTHEAST IOWA

CITY           SKY/WX    TMP DP  RH WIND       PRES   REMARKS
CEDAR RAPIDS   CLOUDY    41  39  93 NE10      29.55S
CHARLES CITY * MIX PCPN  37  37 100 N12       29.62R WCI  30
CLINTON *      CLOUDY    42  41  96 NE15      29.51F
DECORAH *      LGT RAIN  37  36  93 N10G16    29.58R WCI  30
DUBUQUE        CLOUDY    38  37  97 N9        29.55R WCI  31
MONTICELLO *   CLOUDY    39  37  93 N15       29.51F WCI  31
OELWEIN *      CLOUDY    37  37 100 N14       29.57S WCI  29
WATERLOO       CLOUDY    38  36  92 N17       29.58S WCI  28
$$

IAZ064-065-067-068-078-181100-
   EAST CENTRAL IOWA

CITY           SKY/WX    TMP DP  RH WIND       PRES   REMARKS
DAVENPORT      CLOUDY    42  41  96 N12       29.54S FOG
IOWA CITY      CLOUDY    43  40  89 N12       29.55S
MT. PLEASANT * LGT RAIN  44  44 100 N13G25    29.48F
MUSCATINE *    CLOUDY    45  43  93 N16       29.51F
QUAD CITIES    LGT RAIN  45  41  86 N12G17    29.50F
$$

IAZ062-063-075>077-085>089-095>099-181100-
   SOUTHEAST IOWA

CITY           SKY/WX    TMP DP  RH WIND       PRES   REMARKS
BURLINGTON     CLOUDY    47  47 100 N17       29.45F FOG
FAIRFIELD *    CLOUDY    45  43  93 N20G25    29.47F FOG
FORT MADISON * CLOUDY    46  46 100 N12       29.47R FOG
KEOKUK *       CLOUDY    48  48 100 N12       29.45S FOG
OSKALOOSA *    LGT RAIN  40  40  97 N16G23    29.53F WCI  32
OTTUMWA        LGT RAIN  43  41  93 N18       29.51F FOG
WASHINGTON *   LGT RAIN  43  43 100 N16       29.53S
$$

ABBREVIATIONS USED IN REMARKS
   TC - TEMPERATURES IN CELSIUS
  WCI - WIND CHILL INDEX
   HX - HEAT INDEX
  VSB - VISIBILITY
$$




USA.gov is the U.S. government's official web portal to all federal, state and local government web resources and services.